Location: Dronero
(44.4667°N, 7.3667°E)
Time: 14:45:49
(UTC+00:00)

Daily predictions for brighter satellites

Satellite Brightness Start Highest point End
(mag) Time Altitude Azimuth Time Altitude Azimuth Time Altitude Azimuth
Cosmos 2184 Rocket 4.5 19:35:43 10° SSE 19:41:40 44° E 19:47:35 10° NNE
ERS-1 Rocket 4.0 19:39:13 10° SE 19:43:33 30° ENE 19:47:54 10° N
Cosmos 1844 Rocket 2.6 19:43:03 10° SSW 19:48:36 76° ESE 19:54:11 10° NNE
Resurs 01 Rocket 2.8 19:48:51 10° S 19:53:01 43° W 19:57:13 10° NNW
MetOp-B 4.3 19:51:18 10° SSE 19:56:33 61° ENE 20:01:50 10° N
CZ-4 R/B 4.0 19:54:36 10° SW 19:57:34 20° W 20:00:33 10° NW
Okean 2 Rocket 3.5 19:53:27 10° NNW 19:57:56 67° W 20:02:21 10° S
Cosmos 2151 Rocket 4.2 19:54:54 10° NNW 19:59:15 58° W 20:03:36 10° S
Okean O Rocket 2.4 19:56:12 10° S 20:00:24 52° W 20:04:39 10° NNW
MOS 1 4.3 19:56:59 10° SSE 20:02:37 83° ENE 20:08:19 10° NNW
IRS-1C Rocket 4.4 19:57:53 10° SSE 20:02:59 55° ENE 20:08:08 10° N
Cosmos 1680 Rocket 4.3 19:59:10 10° NNW 20:04:15 51° WSW 20:09:19 10° S
Cosmos 2154 Rocket 4.2 19:59:44 10° SSE 20:05:52 55° E 20:12:03 10° NNE
Cosmos 2074 Rocket 4.0 20:01:13 10° S 20:07:24 71° E 20:13:40 10° NNE
Cosmos 1603 4.2 20:02:11 10° NNW 20:07:48 61° WSW 20:13:21 10° S
Cosmos 1892 4.3 20:04:40 10° SW 20:07:56 35° WNW 20:11:14 10° N
Cosmos 1048 Rocket 4.4 20:05:20 10° NNW 20:10:35 53° ENE 20:15:23 12° SE
Ariane Rocket 3.8 20:07:17 11° SE 20:11:42 36° ENE 20:16:19 10° N
SPOT 5 3.0 20:10:50 10° SSE 20:15:42 89° WSW 20:20:52 10° NNW
MOS 1 Rocket 3.7 20:11:40 11° SE 20:15:53 46° ENE 20:20:10 10° N
ISS -1.7 20:13:51 10° WNW 20:16:49 29° NNW 20:19:47 10° NE
Cosmos 921 Rocket 3.0 20:14:04 10° NNW 20:18:13 62° ENE 20:21:45 14° SSE
USA 215 3.4 20:15:52 12° SE 20:22:03 69° SW 20:28:36 10° NW
Cosmos 1825 4.4 20:20:24 10° SW 20:23:12 24° WNW 20:25:59 10° NNW
Cosmos 494 Rocket 4.1 20:20:24 10° NNW 20:25:41 84° WSW 20:30:30 12° SSE
NOSS 2-3 (D) 3.1 20:23:20 10° SSW 20:26:57 64° ESE 20:30:51 10° NE
IRS-1A Rocket 4.3 20:22:07 10° SSE 20:27:46 88° ENE 20:33:34 10° NNW
Okean-O 3.5 20:23:58 10° S 20:28:13 48° W 20:32:30 10° NNW
Timation 2 Rocket 3.9 20:25:14 10° SSW 20:31:33 71° ESE 20:37:38 10° NNE
Gbstr 26 Del rocket 4.4 20:28:31 10° W 20:32:41 43° NNW 20:37:43 10° ENE
Geosat 4.5 20:28:00 10° NE 20:32:41 38° ESE 20:37:20 10° S
Cosmos 1125 Rocket 3.7 20:28:32 10° S 20:33:39 51° ESE 20:38:46 10° NNE
CZ-4C R/B 3.4 20:30:38 10° N 20:34:18 70° WNW 20:37:49 10° SSW
NOSS 3-1 (C) 4.2 20:37:12 18° SE 20:38:39 20° ESE 20:42:30 10° ENE
USA 276 2.7 20:37:50 10° WNW 20:40:42 47° NNE 20:42:48 17° E
Cosmos 2084 3.5 20:38:10 10° SW 20:42:20 75° NW 20:46:19 10° NE
SPOT 3 Rocket 3.7 20:38:30 17° SSE 20:42:27 63° ENE 20:47:37 10° N
NOSS 2-2 (E) 3.5 20:46:42 10° SW 20:49:56 54° NW 20:53:01 10° NNE
Landsat 4 3.9 20:49:58 26° SE 20:51:27 45° ENE 20:54:46 10° N
In-Cosmos 22 Rocket 4.3 20:45:51 10° S 20:51:37 86° W 20:57:17 10° N
Nadezhda 3 Rocket 4.1 20:48:31 10° NNW 20:54:40 73° W 21:00:16 13° S
BREEZE-M DEB (TANK) 3.6 20:52:12 10° WNW 20:55:15 80° NNE 21:03:15 12° ESE
Cosmos 1544 Rocket 3.9 20:51:42 10° N 20:55:56 49° ENE 20:58:03 26° SE
NOSS 2-3 (E) 3.9 20:52:30 10° SW 20:56:06 57° NW 21:00:03 10° NNE
Terra 2.0 20:52:39 16° S 20:56:22 69° WSW 21:01:06 10° NNW
SL-8 Rocket 4.2 20:55:32 19° SSE 20:59:55 52° E 21:06:00 10° NNE
Cosmos 1437 Rocket 2.9 21:07:19 35° SE 21:08:22 47° E 21:11:52 10° NNE
ATLAS CENTAUR R/B 1.7 21:05:02 10° NW 21:08:58 56° WSW 21:10:52 29° S
Meteor 2-1 Rocket 4.4 21:09:31 10° NNW 21:15:06 67° W 21:18:58 20° S
Cosmos 1833 Rocket 2.8 21:09:41 10° NNW 21:15:21 67° ENE 21:18:22 28° SE
Cosmos 1455 Rocket 4.4 21:12:16 10° NNW 21:16:16 35° W 21:19:45 13° SSW
Cosmos 1975 Rocket 4.1 21:13:21 10° SSW 21:17:38 45° WNW 21:21:57 10° N
Cosmos 44 3.3 21:13:38 10° SSW 21:18:56 77° ESE 21:24:01 10° NE
Cosmos 962 Rocket 4.5 21:14:54 14° S 21:20:22 84° W 21:26:34 10° N
Spot 1 4.4 21:15:36 10° NNE 21:20:42 68° ESE 21:23:35 26° S
Orbus 7S? 3.7 21:18:41 10° WNW 21:21:05 30° SW 21:21:21 30° SW
Lacrosse 5 3.9 21:17:37 10° W 21:22:03 30° NNW 21:26:30 10° NE
ERS-1 Rocket 4.2 21:18:03 12° SSW 21:22:12 35° W 21:26:47 10° NNW
Spot 2 Rocket 4.3 21:19:30 17° SSW 21:23:08 47° W 21:28:04 10° NNW
Cosmos 220 Rocket 3.9 21:22:29 10° NNW 21:26:38 77° WSW 21:28:09 38° S
Cosmos 2218 Rocket 3.9 21:23:42 25° S 21:27:27 70° E 21:33:35 10° NNE
Cosmos 864 Rocket 4.4 21:24:18 24° S 21:28:17 74° E 21:34:30 10° NNE
Cosmos 2082 Rocket 3.6 21:23:36 10° N 21:28:23 28° NE 21:31:39 17° E
Landsat 5 3.5 21:27:37 10° NNE 21:32:03 88° ESE 21:34:10 30° SSW
Cosmos 2278 Rocket 2.5 21:31:13 31° SSE 21:33:24 47° ESE 21:38:48 10° NE
Cosmos 1606 3.9 21:33:24 10° NNW 21:36:39 33° W 21:38:05 24° SW
MetOp-A 3.6 21:35:01 37° SSE 21:36:53 88° WSW 21:41:17 10° NNW
Cosmos 2298 Rocket 4.0 21:33:31 16° SSW 21:37:45 83° WNW 21:43:06 10° NNE
Cosmos 2341 Rocket 4.1 21:33:38 18° SSW 21:38:26 77° W 21:44:49 10° N
Cosmos 614 Rocket 3.9 21:37:39 10° NNW 21:42:45 80° ENE 21:44:35 40° SSE
H-2A R/B 4.1 21:44:33 18° E 21:45:19 19° ENE 21:48:05 10° NNE
CZ-2C R/B 4.1 21:40:54 10° NNE 21:45:23 48° E 21:46:20 42° SE
Cosmos 1536 Rocket 3.5 21:47:10 38° SSW 21:48:46 79° W 21:53:06 10° N
Ariane Rocket 4.5 21:47:25 16° SSW 21:50:39 29° W 21:55:04 10° NW
CZ-4C R/B 4.3 21:45:53 10° NNW 21:51:47 30° NE 21:58:46 10° E
ISS -1.4 21:51:29 10° NW 21:54:14 24° N 21:57:00 10° ENE
USA 290 3.4 21:58:14 33° NE 21:58:14 33° NE 22:00:20 10° NNE
COSMOS 2406 4.3 21:52:54 10° NNW 21:58:07 36° NE 22:00:48 24° ESE
ARIANE 5 R/B 2.8 21:58:54 49° SE 21:59:52 63° ENE 22:04:17 10° N
GENESIS II 4.4 22:00:12 10° NW 22:03:31 49° WSW 22:03:31 49° WSW
ATLAS 3B R/B 3.1 22:01:26 35° SSE 22:03:47 46° ESE 22:10:53 10° NE
Cosmos 1269 Rocket 4.2 22:00:12 10° NNW 22:05:28 60° ENE 22:07:06 41° SE
BREEZE-M DEB (TANK) 3.0 21:57:17 10° WNW 22:05:40 48° SW 22:06:11 45° SSW
Cosmos 1727 Rocket 4.0 21:59:56 10° N 22:06:18 79° E 22:08:48 39° SSE
Cosmos 2228 4.1 22:02:57 10° NNW 22:06:46 35° W 22:08:06 28° SW
Cosmos 1943 Rocket 2.3 22:08:20 44° SSE 22:09:48 58° ESE 22:15:19 10° NNE
Cosmos 1821 Rocket 4.0 22:09:48 35° S 22:12:43 88° W 22:19:06 10° N
USA 281 4.5 22:09:48 16° ESE 22:14:07 31° NE 22:19:46 10° N
USA 276 4.3 22:12:08 10° W 22:13:09 17° W 22:13:09 17° W
Cosmos 2058 3.6 22:19:03 40° E 22:19:03 40° E 22:22:42 10° NNE
ALOS 2 3.5 22:19:19 33° E 22:20:02 36° ENE 22:24:03 10° N
Alouette 2 Rocket 4.1 22:24:00 43° E 22:24:05 43° E 22:28:55 10° NNE
Spot 4 4.1 22:23:23 48° ESE 22:24:23 58° ENE 22:29:10 10° N
Cosmos 2084 Rocket 3.5 22:23:10 10° NNW 22:27:06 58° NE 22:27:21 57° ENE
SeaSat 1 2.9 22:26:56 39° ESE 22:28:22 54° ENE 22:33:10 10° NNW
NOSS 3-1 (C) 3.6 22:24:28 14° SW 22:28:39 58° NW 22:34:27 10° NNE
Cosmos 1812 2.8 22:33:22 10° N 22:36:28 65° NNW 22:36:28 65° NNW
Cosmos 1238 Rocket 3.5 22:39:09 10° N 22:42:01 40° ENE 22:42:01 40° ENE
BREEZE-M R/B 4.3 22:38:18 10° W 22:42:49 70° N 22:59:18 10° ENE
PSLV R/B 4.1 22:40:35 10° N 22:44:30 59° WNW 22:44:51 56° W
Cosmos 1892 Rocket 3.7 22:45:05 61° SW 22:45:38 69° W 22:50:04 10° N
Cosmos 1626 Rocket 4.3 22:48:21 40° E 22:48:21 40° E 22:52:08 10° NNE
Cosmos 2251 Rocket 4.5 22:44:16 10° N 22:49:18 39° ENE 22:51:01 31° ESE
Cosmos 1140 Rocket 3.5 22:48:46 10° NNW 22:53:55 72° ENE 22:54:48 58° SE
Cosmos 1833 Rocket 4.4 22:54:51 10° WNW 22:58:39 19° W 23:00:03 17° WSW
BREEZE-M DEB (TANK) 4.2 22:59:23 10° WNW 23:02:36 70° NNE 23:12:12 10° ESE
Cosmos-2242 3.3 23:01:47 10° N 23:05:51 54° ENE 23:05:51 54° ENE
NOSS 3-1 (A) 3.3 23:03:57 35° WSW 23:06:01 65° NW 23:11:53 10° NE
Cosmos 2123 Rocket 4.0 22:59:48 10° N 23:06:06 78° W 23:07:51 50° S
Cosmos 2082 Rocket 2.4 23:07:18 10° NW 23:12:43 51° WSW 23:13:28 48° SW
Cosmos 1656 Rocket 3.9 23:13:38 49° ESE 23:14:00 50° ESE 23:19:19 10° NE
Cosmos 1515 4.4 23:12:20 10° N 23:14:57 45° NNE 23:14:57 45° NNE
Cosmos 2278 Rocket 3.8 23:12:59 11° WSW 23:17:39 30° NW 23:22:37 10° N
Lacrosse 4 Rocket 3.5 23:20:40 16° E 23:20:40 16° E 23:22:11 10° ENE
Cosmos 2369 Rocket 2.7 23:19:37 41° ESE 23:19:56 41° ESE 23:25:10 10° NE
H-2A R/B 3.5 23:20:31 34° W 23:20:31 34° W 23:23:35 10° NNW
ULPM Upper Stage 2.9 23:17:07 10° NW 23:20:59 64° W 23:20:59 64° W
PSLV R/B 3.5 23:17:57 10° NNE 23:22:19 86° E 23:22:20 86° ESE
Iridium 4 Rocket 4.3 23:24:53 10° N 23:30:27 48° E 23:31:55 40° ESE
ISS -2.0 23:28:12 10° NW 23:30:09 31° NW 23:30:09 31° NW
Cosmos 1190 Rocket 4.4 23:26:23 10° NNW 23:31:31 54° ENE 23:32:46 43° ESE
USA 229 DEB 3.4 23:32:18 54° S 23:33:35 69° ESE 23:40:12 10° NE
USA 229 3.4 23:32:27 55° S 23:33:43 68° ESE 23:40:21 10° NE
Cosmos 2058 Rocket 4.2 23:30:49 10° NNW 23:34:37 31° W 23:34:37 31° W
Cosmos 1862 3.7 23:35:38 55° NE 23:35:38 55° NE 23:38:49 10° NNE
Cosmos 1782 3.3 23:31:29 10° NNW 23:34:35 51° NW 23:34:35 51° NW
Cosmos 1378 4.3 23:36:06 10° NNW 23:38:06 35° NNW 23:38:06 35° NNW
CZ-4C R/B 3.0 23:33:49 10° NW 23:41:07 88° NE 23:45:35 32° SE
COSMOS 2455 4.2 23:36:15 10° NNW 23:41:45 35° NE 23:46:54 11° ESE
Meteor 2-2 Rocket 4.2 23:36:33 10° NNW 23:42:17 74° W 23:43:24 57° SSW
COSMOS 2406 3.9 23:37:13 10° NW 23:42:24 38° WSW 23:42:49 37° WSW
Cosmos 2221 3.3 23:42:34 10° N 23:46:35 40° ENE 23:46:52 39° E
Cosmos 2285 Rocket 4.0 23:47:06 10° NNW 23:53:34 85° ENE 23:55:34 48° SSE
Cosmos 1943 Rocket 4.0 23:49:48 12° WSW 23:53:54 25° NW 23:58:32 10° N
Cosmos 1825 Rocket 3.8 23:54:07 55° E 23:54:07 55° E 23:58:16 10° NNE
ALOS 2 4.2 23:56:42 23° W 23:56:42 23° W 23:59:57 10° NW
